This is the latest recevied weather packets stored in our database for station/object F6BIJ-13. If no packets are shown the sender has not sent any weather packets the latest 1 day(s).
| Time | Temp. | Humidity | Pressure | Rain* | Wind** | Luminosity | Snow |
|---|---|---|---|---|---|---|---|
| 1778088997 | 12.22° C | 88% | 1011.2 hPa | 0 mm | - | - | - |
| 1778088277 | 12.22° C | 87% | 1011 hPa | 0 mm | - | - | - |
| 1778087917 | 12.78° C | 87% | 1011 hPa | 0 mm | - | - | - |
| 1778086477 | 13.33° C | 85% | 1011 hPa | 0 mm | - | - | - |
| 1778085037 | 13.89° C | 78% | 1011 hPa | 0 mm | - | - | - |
| 1778084677 | 13.89° C | 78% | 1011.2 hPa | 0 mm | - | - | - |
| 1778084317 | 13.89° C | 79% | 1011.2 hPa | 0 mm | - | - | - |
| 1778082877 | 14.44° C | 73% | 1011.2 hPa | 0 mm | - | - | - |
| 1778081077 | 14.44° C | 72% | 1011.5 hPa | 0 mm | - | - | - |
| 1778079997 | 15° C | 67% | 1011.6 hPa | 0 mm | - | - | - |
| 1778079637 | 15° C | 64% | 1011.6 hPa | 0 mm | - | - | - |
| 1778079277 | 15° C | 68% | 1011.6 hPa | 0 mm | - | - | - |
| 1778077477 | 15° C | 66% | 1011.8 hPa | 0 mm | - | - | - |
| 1778077117 | 15° C | 71% | 1011.8 hPa | 0 mm | - | - | - |
| 1778076037 | 15° C | 74% | 1012 hPa | 0 mm | - | - | - |
| 1778074597 | 16.11° C | 66% | 1012 hPa | 0 mm | - | - | - |
| 1778073877 | 15° C | 69% | 1012.2 hPa | 0 mm | - | - | - |
| 1778073517 | 15° C | 69% | 1012.2 hPa | 0 mm | - | - | - |
| 1778072797 | 16.67° C | 69% | 1012.2 hPa | 0 mm | - | - | - |
| 1778072077 | 14.44° C | 70% | 1012.4 hPa | 0 mm | - | - | - |
| 1778070997 | 15° C | 74% | 1012.5 hPa | 0 mm | - | - | - |
| 1778070637 | 14.44° C | 79% | 1012.4 hPa | 0 mm | - | - | - |
| 1778070277 | 13.33° C | 71% | 1012.4 hPa | 0 mm | - | - | - |
| 1778069197 | 13.33° C | 75% | 1012.6 hPa | 0 mm | - | - | - |
| 1778068837 | 13.33° C | 78% | 1012.5 hPa | 0 mm | - | - | - |
* Rain latest 24 hours (hover to see other rain measurements)
** Current wind speed in m/s (hover to see current wind gust speed)